Watts Bar Lake Weather Center

Moon Phase Calendar



Watts Bar Lake Water Level
Online Cameras

 


      

Current Conditions in Rockwood
10/2/2022 12:46:40 PM

63°F
Feels Like 63
Clouds
Humidity
72%
Pressure
30.09"
Wind
11.5 mph (NNE)
Dew Point
54°F
UV Index
5/10 (Moderate)
Visibility
6 mi

Hourly Forecast

Date & Time Sun, Oct 2
12:00 PM
Sun, Oct 2
1:00 PM
Sun, Oct 2
2:00 PM
Sun, Oct 2
3:00 PM
Sun, Oct 2
4:00 PM
Sun, Oct 2
5:00 PM
Sun, Oct 2
6:00 PM
Sun, Oct 2
7:00 PM
Sun, Oct 2
8:00 PM
Sun, Oct 2
9:00 PM
Sun, Oct 2
10:00 PM
Sun, Oct 2
11:00 PM
Mon, Oct 3
12:00 AM
Mon, Oct 3
1:00 AM
Mon, Oct 3
2:00 AM
Mon, Oct 3
3:00 AM
Mon, Oct 3
4:00 AM
Mon, Oct 3
5:00 AM
Mon, Oct 3
6:00 AM
Mon, Oct 3
7:00 AM
Mon, Oct 3
8:00 AM
Mon, Oct 3
9:00 AM
Mon, Oct 3
10:00 AM
Mon, Oct 3
11:00 AM
Mon, Oct 3
12:00 PM
Mon, Oct 3
1:00 PM
Mon, Oct 3
2:00 PM
Mon, Oct 3
3:00 PM
Mon, Oct 3
4:00 PM
Mon, Oct 3
5:00 PM
Mon, Oct 3
6:00 PM
Mon, Oct 3
7:00 PM
Mon, Oct 3
8:00 PM
Mon, Oct 3
9:00 PM
Mon, Oct 3
10:00 PM
Mon, Oct 3
11:00 PM
Tue, Oct 4
12:00 AM
Tue, Oct 4
1:00 AM
Tue, Oct 4
2:00 AM
Tue, Oct 4
3:00 AM
Tue, Oct 4
4:00 AM
Tue, Oct 4
5:00 AM
Tue, Oct 4
6:00 AM
Tue, Oct 4
7:00 AM
Tue, Oct 4
8:00 AM
Tue, Oct 4
9:00 AM
Tue, Oct 4
10:00 AM
Tue, Oct 4
11:00 AM
Condition
Clouds

Clouds

Clouds

Clouds

Clouds

Clouds

Clouds

Clouds

Clouds

Clouds

Clouds

Clouds

Clouds

Clouds

Clouds

Clear

Clear

Clear

Clear

Clear

Clear

Clear

Clear

Clear

Clear

Clear

Clear

Clear

Clear

Clear

Clear

Clear

Clear

Clear

Clear

Clear

Clear

Clear

Clear

Clear

Clear

Clear

Clear

Clear

Clear

Clear

Clear

Clear
Temperature 64°F63°F64°F65°F66°F66°F65°F62°F61°F59°F59°F59°F58°F55°F52°F52°F51°F51°F51°F50°F50°F55°F60°F64°F68°F71°F73°F74°F75°F74°F72°F65°F61°F58°F57°F55°F54°F53°F52°F52°F51°F50°F49°F49°F49°F55°F60°F65°F
Feels Like 63°F63°F63°F64°F65°F65°F64°F61°F60°F58°F58°F58°F57°F54°F52°F51°F51°F50°F50°F50°F50°F54°F59°F63°F67°F70°F72°F74°F74°F73°F71°F65°F60°F57°F56°F54°F53°F52°F51°F51°F50°F49°F49°F48°F48°F53°F59°F63°F
Cloudiness 96%100%96%99%98%98%98%98%98%96%98%99%99%92%76%0%0%0%1%1%1%5%2%3%3%2%2%1%1%1%1%1%0%0%0%0%0%0%0%0%0%0%0%0%0%0%0%0%
Visibility 6 mi6 mi6 mi6 mi6 mi6 mi6 mi6 mi6 mi6 mi6 mi6 mi6 mi6 mi6 mi6 mi6 mi6 mi6 mi6 mi6 mi6 mi6 mi6 mi6 mi6 mi6 mi6 mi6 mi6 mi6 mi6 mi6 mi6 mi6 mi6 mi6 mi6 mi6 mi6 mi6 mi6 mi6 mi6 mi6 mi6 mi6 mi6 mi
Precipitation 0%0%0%0%0%0%0%0%0%0%0%0%0%0%0%0%0%0%0%0%0%0%0%0%0%0%0%0%0%0%0%0%0%0%0%0%0%0%0%0%0%0%0%0%0%0%0%0%
Humidity 69%72%69%66%63%63%64%69%71%75%75%76%78%87%94%96%97%97%97%97%97%85%72%64%57%51%48%45%44%45%52%66%73%76%78%81%84%86%86%88%90%92%94%94%93%79%66%56%
Dew Point 53°F54°F54°F53°F53°F53°F52°F51°F50°F50°F50°F50°F50°F50°F50°F50°F49°F49°F49°F49°F49°F50°F50°F51°F51°F51°F51°F51°F51°F51°F52°F53°F51°F50°F49°F48°F48°F48°F48°F47°F47°F47°F47°F46°F46°F47°F48°F48°F
Pressure 30.09"30.09"30.09"30.09"30.09"30.09"30.09"30.12"30.12"30.15"30.15"30.15"30.15"30.15"30.15"30.15"30.15"30.15"30.18"30.18"30.21"30.21"30.21"30.18"30.18"30.15"30.15"30.12"30.09"30.09"30.09"30.09"30.12"30.12"30.15"30.15"30.15"30.15"30.15"30.15"30.15"30.15"30.15"30.18"30.18"30.18"30.18"30.18"
Wind Speed 8.6 mph9.7 mph10.7 mph10.9 mph11.1 mph9.8 mph8.8 mph7.9 mph7.4 mph5.5 mph4.4 mph3.9 mph3.8 mph2.8 mph3.5 mph4.9 mph5.3 mph5 mph4.8 mph4.7 mph4.6 mph5.7 mph7.5 mph8.1 mph7.7 mph7.8 mph7.8 mph7.8 mph7.9 mph8.7 mph7.6 mph5.7 mph5.7 mph5 mph5.1 mph5.5 mph5.4 mph5.1 mph4.8 mph4.3 mph4.3 mph4.2 mph3.5 mph3.7 mph3.4 mph3.3 mph3.3 mph3 mph
Wind
Direction
26°
NNE
31°
NNE
28°
NNE
25°
NNE
32°
NNE
42°
NE
54°
NE
59°
ENE
55°
NE
53°
NE
63°
ENE
67°
ENE
65°
ENE
50°
NE
22°
NNE
19°
NNE
17°
NNE
10°
N

N
15°
NNE
18°
NNE
32°
NNE
50°
NE
53°
NE
51°
NE
48°
NE
48°
NE
49°
NE
48°
NE
42°
NE
37°
NE
21°
NNE

N

N
13°
NNE
14°
NNE
11°
N

N

N

N
17°
NNE
20°
NNE
18°
NNE
20°
NNE
18°
NNE
38°
NE
54°
NE
57°
ENE

Daily Forecast

Date High Low Precip. Humidity
Today
Oct 2

Clouds
66 °F
50 °F
0%
72%
Monday
Oct 3

Clear
75 °F
50 °F
0%
51%
Tuesday
Oct 4

Clear
74 °F
49 °F
0%
32%
Wednesday
Oct 5

Clouds
75 °F
45 °F
0%
28%
Thursday
Oct 6

Clear
79 °F
48 °F
0%
26%
Friday
Oct 7

Clouds
81 °F
55 °F
0%
33%
Saturday
Oct 8

Clouds
64 °F
42 °F
0%
34%
Sunday
Oct 9

Clear
68 °F
41 °F
0%
25%
Monday
Oct 10

Clouds
74 °F
45 °F
0%
31%
Tuesday
Oct 11

Clouds
74 °F
46 °F
0%
39%
Wednesday
Oct 12

Clouds
78 °F
52 °F
0%
37%
Thursday
Oct 13

Clouds
77 °F
53 °F
6%
39%
Friday
Oct 14

Clouds
71 °F
63 °F
6%
69%
Saturday
Oct 15

Clear
78 °F
54 °F
0%
41%
Sunday
Oct 16

Clouds
78 °F
55 °F
8%
50%
Monday
Oct 17

Rain
67 °F
60 °F
100%
95%

Temperature 8-14 Day Outlook



Precipitation 8-14 Day Outlook




Quick Links
Watts Bar Lake News
Watts Bar Lake Photos
Watts Bar Lake Videos




About Us
Contact Us
Site Map
Search Site
Advertise With Us
   
www.WattsBar.info
THE WATTS BAR LAKE WEBSITE

Copyright 2022, Lakes Online
Privacy    |    Legal